CAPE
0 0 0 0 63 275 48 35 78 95 178 198 113 32 258 530 642 896 7 0 152 457 145 95 548 559 283 319 286 368 312 222 372 76 328 305 318 230 289 296 400 813 758 464 347 307 248 177 165
0 0 0 0 0 30 100 45 38 176 250 159 57 26 113 389 625 429 0 53 240 415 155 100 506 612 523 503 683 704 307 430 416 89 193 610 595 666 450 512 557 725 726 351 303 240 110 25 2
0 0 0 0 0 0 13 8 98 289 205 195 167 142 259 745 584 151 69 49 237 306 269 267 538 592 580 675 675 929 1088 866 705 632 629 847 705 514 566 534 485 619 538 156 20 0 0 0 0
0 0 0 0 0 0 2 78 144 307 263 243 230 555 769 719 181 162 80 75 138 180 489 208 449 652 713 627 593 638 675 769 729 617 962 789 641 310 409 413 459 463 177 0 0 0 0 0 0
0 0 0 0 0 0 0 1 169 255 272 246 224 593 942 734 280 128 153 84 100 198 736 299 394 675 796 684 475 343 385 672 693 656 758 704 637 502 539 443 353 267 102 0 0 0 0 0 0
0 0 0 0 0 0 0 0 71 253 283 279 262 853 1104 667 307 218 207 172 130 349 416 434 633 748 739 744 436 339 441 570 585 602 660 696 515 531 476 346 221 156 76 0 0 0 0 0 0
0 0 0 0 0 2 0 0 0 285 301 340 374 726 922 692 311 222 318 270 163 233 469 608 466 437 395 239 161 238 254 225 367 490 475 411 291 267 197 82 30 0 0 0 0 0 0 0 0
0 0 0 0 1 1 0 0 15 50 324 413 473 813 828 716 362 290 332 238 269 314 420 317 290 168 123 239 78 139 76 0 14 94 145 151 145 102 47 0 0 0 0 0 0 0 0 0 0
0 0 0 0 1 0 0 0 97 125 559 517 539 607 957 716 440 304 240 247 387 461 246 139 76 82 56 23 32 74 89 0 0 0 0 0 0 0 0 0 0 0 0 0 0 0 0 0 0
0 0 0 0 0 0 0 0 317 302 266 603 591 754 851 731 458 260 153 181 384 512 154 53 49 48 34 0 0 0 0 0 0 0 0 0 0 0 0 0 0 0 0 0 0 0 0 6 11
0 0 0 0 0 0 0 0 0 316 212 586 680 905 769 603 427 188 82 87 117 310 227 28 32 67 5 0 0 0 0 0 0 0 0 4 0 0 0 0 0 0 0 0 0 59 163 69 162
0 0 0 0 0 0 0 0 0 0 235 423 490 971 784 594 397 102 50 43 35 93 57 12 7 21 4 0 2 3 16 8 0 0 0 2 0 0 0 0 0 0 14 47 45 37 263 393 477
0 0 0 0 0 0 0 0 0 0 0 70 216 989 922 632 303 43 15 20 1 2 4 0 1 2 2 1 0 5 16 12 41 41 23 0 6 9 7 5 9 48 56 146 63 307 150 219 125
0 0 0 0 0 0 0 0 0 0 0 3 343 893 961 731 278 57 40 41 26 0 0 0 0 0 1 1 110 11 17 183 57 59 59 73 41 67 69 18 54 108 469 342 107 456 151 48 5
0 0 0 0 0 0 0 0 0 0 0 0 190 904 843 748 293 121 58 87 61 18 0 0 2 32 26 3 0 12 8 71 32 8 166 110 183 148 212 113 84 132 154 51 279 283 38 0 0
0 0 0 0 0 0 0 0 0 0 0 0 71 684 863 682 288 218 106 84 62 22 5 6 0 38 72 39 3 17 93 95 94 181 242 283 348 504 376 184 196 131 92 70 102 42 5 0 0
0 0 0 0 0 0 0 0 0 0 0 0 16 410 748 730 343 241 206 116 72 45 54 59 64 93 93 181 19 46 379 114 110 149 212 422 455 528 305 198 156 152 70 12 3 1 0 0 0
0 0 0 0 0 0 0 0 0 0 6 0 6 274 767 768 447 293 254 172 88 71 82 82 91 327 194 114 46 40 200 222 168 125 257 419 307 306 260 140 94 90 10 0 0 2 1 0 0
0 0 0 0 0 0 0 0 0 0 1 12 3 445 591 867 658 398 273 205 100 97 121 102 215 576 240 175 145 303 350 307 186 129 354 388 215 148 189 21 27 1 0 0 0 0 0 0 0
0 0 0 0 0 0 0 0 0 0 0 0 90 394 788 803 815 540 362 193 177 172 286 183 210 275 340 203 195 324 385 400 281 383 267 206 85 47 55 0 0 0 0 0 0 0 0 0 0
0 0 0 0 0 0 0 0 0 0 0 0 30 218 895 1005 1011 741 547 307 292 305 532 308 470 429 361 364 276 392 917 651 447 377 145 71 0 0 0 0 0 0 0 0 0 0 0 0 0
0 0 0 0 0 0 0 0 0 0 0 0 8 195 579 1182 1293 1037 714 478 370 374 710 513 561 721 689 698 546 520 662 440 522 214 73 3 0 0 0 0 0 0 0 0 0 0 0 0 0
0 0 0 0 0 0 0 0 0 0 0 16 0 9 366 1090 1414 1460 1184 872 549 690 911 835 1067 696 884 900 1053 1177 607 430 387 255 115 0 0 0 0 0 0 0 0 0 0 0 0 0 0
0 0 0 0 0 0 0 0 0 0 0 0 0 2 299 769 1493 1582 1677 1356 1148 883 1259 1318 1182 1089 1094 901 1079 993 691 794 645 270 90 3 0 0 0 0 0 0 0 0 0 0 0 0 0
0 0 0 0 0 0 0 0 0 0 0 0 0 17 280 871 1340 1536 1657 1684 1438 1707 1501 1533 1216 803 723 930 828 751 976 1642 992 259 79 25 0 0 0 0 0 0 0 0 0 0 0 0 0
0 0 0 0 0 0 0 0 0 0 0 0 190 466 432 704 1339 1884 1772 1888 1955 1823 1711 1609 834 696 694 854 842 888 1271 1348 1028 248 98 60 3 0 0 0 0 0 0 0 0 0 0 0 0
0 0 0 0 0 1 0 0 0 0 0 0 0 0 0 130 613 1001 1587 1682 1803 1678 1734 1756 1008 1359 1265 1139 1298 1159 1132 878 672 361 159 8 3 0 0 0 0 0 0 0 0 0 0 0 0
0 0 1 41 2 0 3 1 0 0 0 0 0 0 0 0 0 52 298 810 1337 1615 1764 1095 479 456 857 939 520 323 348 19 0 0 0 0 0 0 0 0 0 0 0 0 0 0 0 0 0
0 0 0 0 8 14 5 30 57 0 0 0 0 0 0 0 0 158 70 138 774 950 974 991 409 178 166 30 19 38 0 0 0 0 2 3 0 0 0 0 0 0 0 0 0 0 0 0 0
4 0 0 33 8 3 23 21 18 0 0 0 0 0 0 0 0 0 2 0 0 0 176 239 207 212 68 31 3 1 0 0 0 1 10 0 0 0 0 0 0 0 0 0 0 0 0 0 0
CIN
-0 -0 -0 -0 -51 -7 -5 -5 -0 -2 -3 -18 -18 -23 -1 -26 -8 -5 -32 -0 -89 -48 -123 -179 -16 -0 -1 -0 -2 -4 -3 -22 -3 -14 -4 -5 -1 -1 -3 -1 -8 -1 -0 -0 -3 -11 -19 -27 -36
-0 -0 -0 -0 -0 -0 -4 -4 -3 -1 -33 -43 -71 -60 -16 -38 -62 -86 -0 -173 -71 -39 -80 -150 -14 -0 -0 -0 -0 -0 -8 -2 -7 -14 -2 -0 -0 -0 -1 -5 -7 -1 -0 -3 -12 -18 -42 -68 -64
-0 -0 -0 -0 -0 -0 -7 -31 -0 -7 -39 -39 -45 -32 -29 -49 -62 -116 -177 -183 -73 -43 -23 -22 -7 -1 -0 -0 -0 -0 -0 -0 -0 -0 -0 -0 -0 -0 -4 -5 -1 -0 -0 -7 -56 -0 -0 -0 -0
-0 -0 -0 -0 -0 -0 -0 -0 -0 -18 -24 -40 -31 -21 -85 -81 -86 -150 -190 -158 -96 -64 -6 -56 -14 -0 -0 -0 -0 -0 -1 -0 -0 -0 -0 -0 -0 -0 -1 -0 -0 -0 -3 -0 -0 -0 -0 -0 -0
-0 -0 -0 -0 -0 -0 -0 -11 -26 -6 -18 -22 -27 -19 -58 -75 -128 -181 -150 -140 -103 -61 -3 -20 -17 -0 -0 -0 -0 -0 -1 -0 -0 -0 -0 -2 -0 -5 -1 -0 -0 -8 -32 -0 -0 -0 -0 -0 -0
-0 -0 -0 -0 -0 -0 -0 -0 -30 -1 -15 -26 -33 -13 -56 -104 -117 -133 -112 -101 -92 -38 -19 -10 -0 -0 -0 -0 -0 -6 -0 -0 -0 -0 -0 -0 -0 -0 -6 -2 -15 -34 -60 -0 -0 -0 -0 -0 -0
-0 -0 -0 -0 -0 -1 -0 -0 -0 -0 -8 -12 -33 -1 -96 -98 -123 -119 -79 -91 -96 -73 -21 -1 -11 -11 -2 -20 -17 -8 -24 -27 -0 -0 -0 -1 -5 -3 -9 -30 -27 -0 -0 -0 -0 -0 -0 -0 -0
-0 -0 -0 -0 -0 -0 -0 -0 -87 -20 -0 -54 -60 -10 -98 -98 -124 -101 -88 -111 -75 -52 -37 -33 -44 -62 -61 -14 -60 -16 -42 -0 -12 -8 -9 -14 -16 -26 -46 -0 -0 -0 -0 -0 -0 -0 -0 -0 -0
-0 -0 -0 -0 -0 -0 -0 -0 -70 -42 -6 -57 -73 -42 -75 -132 -121 -112 -113 -115 -68 -28 -69 -90 -120 -121 -118 -140 -89 -59 -51 -0 -0 -0 -0 -0 -0 -0 -0 -0 -0 -0 -0 -0 -0 -0 -0 -0 -0
-0 -0 -0 -0 -0 -0 -0 -0 -10 -56 -30 -67 -85 -129 -128 -141 -137 -141 -156 -150 -88 -49 -104 -141 -151 -168 -171 -0 -0 -0 -0 -0 -0 -0 -0 -0 -0 -0 -0 -0 -0 -0 -0 -0 -0 -0 -0 -30 -1
-0 -0 -0 -0 -0 -0 -0 -0 -0 -56 -35 -57 -91 -119 -172 -176 -148 -163 -198 -168 -170 -91 -110 -170 -190 -152 -44 -0 -0 -0 -0 -0 -0 -0 -0 -0 -0 -0 -0 -0 -0 -0 -0 -0 -0 -31 -19 -0 -1
-0 -0 -0 -0 -0 -0 -0 -0 -0 -0 -18 -29 -88 -97 -158 -181 -145 -186 -209 -190 -221 -190 -215 -250 -286 -227 -23 -0 -0 -0 -0 -0 -0 -0 -0 -0 -0 -0 -0 -0 -0 -0 -5 -0 -0 -0 -1 -0 -1
-0 -0 -0 -0 -0 -0 -0 -0 -0 -0 -0 -112 -79 -88 -126 -137 -152 -207 -231 -192 -28 -80 -128 -0 -0 -0 -0 -0 -0 -0 -16 -0 -7 -92 -118 -0 -0 -0 -0 -0 -0 -0 -1 -10 -20 -0 -2 -0 -8
-0 -0 -0 -0 -0 -0 -0 -0 -0 -0 -0 -115 -85 -117 -127 -124 -160 -238 -276 -232 -223 -0 -0 -0 -0 -0 -0 -0 -108 -47 -152 -26 -71 -91 -56 -57 -89 -53 -74 -0 -1 -57 -2 -7 -44 -1 -19 -1 -8
-0 -0 -0 -0 -0 -0 -0 -0 -0 -0 -0 -0 -85 -80 -121 -127 -157 -215 -247 -213 -216 -228 -0 -0 -67 -248 -237 -0 -0 -184 -0 -70 -91 -8 -1 -14 -6 -4 -2 -24 -34 -11 -5 -67 -5 -0 -8 -0 -0
-0 -0 -0 -0 -0 -0 -0 -0 -0 -0 -0 -0 -92 -66 -83 -143 -189 -197 -206 -199 -211 -240 -104 -285 -0 -227 -192 -191 -40 -173 -74 -49 -56 -18 -0 -0 -0 -0 -0 -11 -8 -6 -14 -18 -8 -5 -28 -0 -0
-0 -0 -0 -0 -0 -0 -0 -0 -0 -0 -0 -0 -69 -41 -71 -114 -171 -196 -189 -191 -221 -250 -253 -260 -229 -192 -183 -113 -78 -107 -12 -40 -41 -25 -7 -0 -0 -0 -3 -28 -35 -34 -62 -20 -62 -37 -0 -0 -0
-0 -0 -0 -0 -0 -0 -0 -0 -0 -0 -0 -0 -30 -43 -20 -75 -138 -189 -197 -177 -231 -245 -250 -251 -219 -83 -130 -169 -174 -153 -36 -21 -34 -43 -0 -0 -0 -1 -2 -34 -49 -55 -3 -6 -0 -0 -0 -0 -0
-0 -0 -0 -0 -0 -0 -0 -0 -0 -0 -0 -0 -0 -4 -28 -21 -68 -133 -188 -175 -203 -222 -244 -261 -165 -44 -136 -154 -138 -46 -21 -14 -28 -36 -1 -0 -8 -48 -31 -94 -106 -6 -0 -0 -0 -0 -0 -0 -0
-0 -0 -0 -0 -0 -0 -0 -0 -0 -0 -0 -0 -0 -0 -23 -29 -7 -47 -124 -167 -182 -181 -151 -202 -188 -136 -100 -132 -106 -29 -4 -2 -18 -6 -12 -21 -80 -110 -100 -0 -0 -0 -0 -0 -0 -0 -0 -0 -0
-0 -0 -0 -0 -0 -0 -0 -0 -0 -0 -0 -0 -9 -1 -1 -32 -39 -22 -76 -148 -161 -132 -97 -144 -92 -82 -74 -49 -53 -17 -0 -1 -1 -2 -52 -84 -0 -0 -0 -0 -0 -0 -0 -0 -0 -0 -0 -0 -0
-0 -0 -0 -0 -0 -0 -0 -0 -0 -0 -0 -0 -0 -0 -1 -0 -6 -31 -75 -113 -165 -137 -77 -87 -88 -31 -7 -2 -14 -24 -11 -28 -7 -30 -75 -145 -0 -0 -0 -0 -0 -0 -0 -0 -0 -0 -0 -0 -0
-0 -0 -0 -0 -0 -0 -0 -0 -0 -0 -0 -0 -0 -19 -0 -1 -0 -9 -56 -101 -155 -95 -109 -98 -71 -67 -6 -7 -0 -1 -13 -19 -3 -20 -84 -0 -0 -0 -0 -0 -0 -0 -0 -0 -0 -0 -0 -0 -0
-0 -0 -0 -0 -0 -0 -0 -0 -0 -0 -0 -0 -0 -0 -0 -0 -0 -0 -0 -20 -39 -60 -41 -0 -47 -63 -9 -5 -3 -4 -26 -0 -1 -36 -99 -179 -0 -0 -0 -0 -0 -0 -0 -0 -0 -0 -0 -0 -0
-0 -0 -0 -0 -0 -0 -0 -0 -0 -0 -0 -0 -0 -0 -0 -0 -0 -2 -6 -4 -5 -1 -4 -5 -15 -29 -46 -9 -45 -18 -2 -0 -3 -49 -120 -178 -0 -0 -0 -0 -0 -0 -0 -0 -0 -0 -0 -0 -0
-0 -0 -0 -0 -0 -0 -0 -0 -0 -0 -0 -0 -96 -46 -6 -0 -0 -7 -19 -0 -1 -0 -1 -1 -34 -3 -29 -18 -39 -43 -0 -2 -0 -57 -88 -140 -162 -0 -0 -0 -0 -0 -0 -0 -0 -0 -0 -0 -0
-0 -0 -0 -0 -0 -0 -0 -0 -0 -0 -0 -0 -0 -0 -0 -185 -81 -13 -11 -10 -0 -1 -0 -0 -34 -2 -0 -1 -5 -29 -6 -26 -53 -60 -58 -145 -0 -0 -0 -0 -0 -0 -0 -0 -0 -0 -0 -0 -0
-0 -0 -0 -0 -0 -0 -0 -0 -0 -0 -0 -0 -0 -0 -0 -0 -0 -219 -116 -27 -7 -4 -0 -27 -90 -73 -9 -16 -62 -97 -123 -273 -0 -0 -0 -0 -0 -0 -0 -0 -0 -0 -0 -0 -0 -0 -0 -0 -0
-0 -0 -0 -0 -0 -0 -0 -0 -4 -0 -0 -0 -0 -0 -0 -0 -0 -163 -281 -174 -12 -28 -39 -12 -119 -166 -178 -291 -362 -328 -0 -0 -0 -0 -0 -0 -0 -0 -0 -0 -0 -0 -0 -0 -0 -0 -0 -0 -0
-15 -0 -0 -0 -0 -0 -0 -95 -74 -0 -0 -0 -0 -0 -0 -0 -0 -0 -0 -0 -0 -12 -241 -162 -149 -98 -223 -342 -517 -0 -0 -0 -0 -0 -0 -0 -0 -0 -0 -0 -0 -0 -0 -0 -0 -0 -0 -0 -0
Wind_Speed
9 12 12 8 10 10 20 11 7 4 6 6 4 5 16 20 14 8 15 16 20 21 19 18 16 13 11 10 10 10 11 13 15 15 17 15 16 14 14 15 15 18 17 18 18 18 17 15 13
12 9 7 9 11 16 15 7 5 4 12 5 10 3 3 14 11 16 14 21 20 21 18 18 16 13 11 10 10 10 13 13 16 11 15 14 14 14 16 15 15 17 17 18 18 17 14 12 11
14 10 10 10 16 18 7 20 3 16 7 9 6 2 6 7 10 13 17 21 20 20 18 18 16 13 12 11 10 10 12 12 14 14 14 14 15 15 15 14 14 15 17 17 17 15 13 9 9
8 7 9 13 20 20 20 10 9 7 7 9 8 11 9 5 10 13 19 19 18 18 20 16 16 14 11 12 12 10 10 12 13 14 13 14 16 15 13 13 15 15 16 16 15 12 10 8 7
10 9 14 18 21 22 2 4 6 8 9 10 6 11 9 8 11 19 19 17 17 17 19 17 16 14 12 13 12 11 9 11 13 13 14 14 16 14 14 14 14 14 14 14 12 10 8 7 5
10 12 16 17 22 18 7 4 8 9 10 9 6 12 8 9 17 18 18 17 15 17 17 16 16 14 13 12 13 11 10 10 12 14 13 14 13 13 13 13 12 13 12 11 10 8 7 6 5
18 15 18 22 21 14 12 7 9 11 9 10 2 8 7 14 18 18 17 16 14 17 17 16 16 14 13 12 12 11 11 11 11 12 13 13 12 12 13 12 12 11 10 9 7 6 7 7 7
16 16 25 20 19 15 11 4 10 12 11 7 5 8 10 18 20 18 18 16 15 15 16 15 15 14 13 13 12 11 12 11 11 11 12 12 11 11 12 11 10 9 8 7 6 5 6 7 6
21 17 19 23 19 15 11 10 9 8 10 8 6 7 22 24 21 20 19 18 15 10 15 15 15 14 13 13 13 13 13 12 13 12 12 13 11 12 13 13 9 8 7 6 5 5 6 8 6
19 17 25 22 17 8 7 14 13 7 10 10 8 9 21 24 21 21 20 19 20 16 15 15 15 15 14 12 13 13 13 11 11 12 13 10 11 9 11 10 8 7 8 8 7 8 11 12 10
23 23 22 24 19 7 13 11 6 11 14 14 13 17 21 23 22 21 21 21 21 20 15 15 14 14 15 14 11 8 8 8 9 13 11 10 8 7 8 7 6 7 10 8 9 8 8 3 8
26 24 25 25 18 11 18 11 15 9 6 6 14 20 21 23 23 22 21 21 21 21 20 16 17 14 12 11 10 10 9 8 8 10 9 8 7 9 8 8 9 8 8 5 4 6 8 7 10
23 24 24 22 24 18 18 18 11 14 12 7 8 21 22 22 22 19 19 20 20 21 20 19 16 14 12 12 9 9 10 9 10 9 10 9 8 6 7 6 8 6 5 5 6 7 6 8 9
21 21 21 23 24 17 17 21 16 14 12 10 12 17 20 22 22 20 20 20 21 20 20 19 17 15 13 11 10 9 9 9 9 9 8 8 8 6 6 6 4 4 3 3 5 6 6 7 7
18 18 17 26 20 24 18 22 24 16 16 15 14 17 19 20 22 22 20 20 20 19 20 19 18 16 13 11 10 8 9 8 8 8 10 10 6 7 7 7 5 5 6 6 6 5 7 6 7
22 20 21 22 24 18 23 24 24 19 18 17 16 16 18 21 21 21 19 19 20 20 21 18 16 17 16 12 11 9 9 9 8 8 8 7 6 8 6 6 5 6 7 6 6 4 5 6 6
17 18 26 23 26 22 25 22 22 24 23 18 17 18 19 20 22 20 21 19 19 19 20 19 17 18 17 14 11 10 11 8 8 8 8 8 7 7 6 6 6 6 5 5 5 6 7 6 6
23 23 20 23 21 24 25 24 22 22 25 18 19 16 20 22 24 21 19 19 19 19 19 19 15 16 16 13 11 9 10 8 7 8 8 10 7 7 5 6 6 5 5 5 5 5 5 6 7
21 21 23 18 14 23 22 24 23 24 22 21 19 19 16 22 23 23 21 20 20 20 20 21 18 16 14 12 11 10 10 9 8 8 9 9 8 7 6 6 6 5 4 5 6 6 8 7 7
27 17 18 16 14 10 16 22 25 24 24 20 21 21 19 18 21 24 23 22 21 20 19 20 20 18 15 12 11 10 10 9 9 7 8 9 8 8 7 6 6 6 5 6 7 6 7 7 9
26 21 20 18 13 12 15 20 23 26 25 23 22 20 23 22 20 21 23 22 18 17 19 20 19 20 18 16 11 10 8 7 8 8 8 8 8 8 7 7 6 6 4 5 8 9 9 8 9
25 21 19 15 12 15 20 14 19 21 23 25 20 16 20 24 22 22 21 23 22 20 18 18 20 19 18 16 13 16 11 11 9 9 8 8 9 8 7 7 6 7 6 8 8 8 8 7 8
21 20 19 18 16 16 18 15 15 25 25 22 23 19 18 21 23 24 24 24 22 19 18 19 20 20 16 15 13 12 13 10 9 9 11 9 8 8 8 8 7 7 6 7 8 8 9 8 7
20 18 14 18 14 16 24 16 14 18 24 23 22 22 16 16 21 23 23 22 22 21 18 18 17 20 19 18 12 13 16 14 11 11 10 9 8 7 8 8 7 7 6 6 7 7 9 7 7
23 18 12 14 15 15 22 19 10 10 7 3 4 17 21 17 17 18 19 17 16 18 20 17 17 17 16 13 13 12 14 12 10 12 10 11 9 8 8 8 7 6 6 6 6 8 8 8 7
26 23 15 21 18 17 17 20 10 12 8 11 10 11 9 8 15 13 5 17 18 21 19 16 13 14 16 16 16 14 11 8 9 11 10 9 8 7 9 8 7 8 7 6 6 6 6 7 7
21 25 28 19 19 17 18 8 9 11 12 13 13 10 6 5 6 8 9 12 14 15 20 17 13 17 18 18 15 14 10 5 5 6 6 7 8 8 11 7 5 6 8 7 6 5 7 7 7
23 22 22 19 18 20 20 22 10 16 15 14 13 11 9 7 5 3 4 2 8 12 14 13 11 10 8 8 10 9 10 10 11 9 9 10 7 7 10 9 7 6 6 5 5 6 6 7 6
17 13 22 22 15 15 17 18 19 21 17 15 13 11 10 10 8 8 10 5 7 8 7 10 9 8 8 10 8 9 9 9 9 9 10 10 11 12 10 8 9 8 7 7 4 5 8 8 8
15 19 23 16 21 18 14 8 17 21 16 15 13 12 11 11 10 9 12 12 13 12 6 4 5 8 7 10 10 9 9 10 10 10 10 12 12 12 10 10 9 6 8 9 7 6 8 9 9
Wind_Direction
185 198 223 238 243 231 266 241 38 120 151 63 74 1 45 26 11 69 128 120 123 128 132 140 126 124 120 117 112 103 94 91 93 83 93 101 107 111 112 111 124 122 117 112 109 102 99 98 91
202 209 236 268 248 253 244 235 129 77 72 114 91 120 106 77 62 113 132 122 131 130 146 136 127 125 124 124 113 107 105 94 101 104 103 105 106 109 126 127 108 105 107 108 103 100 96 93 91
254 232 264 228 237 253 292 336 337 81 122 146 134 306 69 76 113 126 123 137 132 135 143 122 125 125 129 126 118 107 106 101 102 106 109 109 106 103 99 98 103 105 104 105 98 94 90 90 87
211 205 246 255 251 251 262 154 312 120 154 166 143 104 91 17 122 117 141 136 135 139 120 129 122 124 129 124 118 112 108 108 107 110 109 107 110 107 101 101 101 102 102 98 96 95 96 88 95
237 260 246 243 244 254 333 340 272 171 154 176 193 128 85 131 111 138 137 140 136 133 121 134 122 124 127 119 114 108 98 99 113 113 108 103 107 106 103 100 100 99 100 99 96 91 85 79 73
225 237 244 244 242 239 214 196 251 217 153 171 190 120 94 134 140 148 144 135 137 126 137 136 124 123 120 115 109 105 99 95 106 111 111 106 105 106 106 102 99 94 88 86 85 78 74 78 80
239 231 243 257 263 237 198 230 225 216 165 164 157 155 116 155 148 151 136 133 150 131 134 140 137 129 112 116 113 112 108 103 99 102 107 107 107 105 102 99 97 95 98 98 95 90 84 73 69
236 252 258 248 260 254 203 173 262 235 192 82 170 162 166 154 156 148 136 149 143 144 140 145 142 153 146 139 118 114 114 112 111 110 108 109 109 111 115 116 104 103 99 97 105 104 107 93 82
228 248 243 244 243 242 142 224 164 277 117 160 187 4 130 149 158 154 151 150 140 159 153 151 153 149 145 137 129 126 123 123 122 127 134 152 136 157 160 96 124 123 130 137 146 147 149 136 118
233 234 241 247 247 235 221 218 137 213 185 180 148 107 140 155 164 161 164 160 157 167 155 154 158 152 156 147 157 146 144 152 142 140 164 174 152 171 126 119 141 150 163 167 176 200 198 208 155
217 241 239 246 259 255 258 219 154 211 207 182 181 146 158 165 175 169 173 167 165 160 161 160 161 159 170 136 164 154 174 149 152 167 186 125 151 140 151 144 164 167 195 179 187 195 211 44 27
228 234 248 262 238 224 259 210 201 222 229 204 183 156 165 177 181 176 177 169 166 166 162 171 162 166 174 160 169 162 147 159 155 166 146 155 168 187 160 176 169 177 190 122 160 70 70 75 65
229 238 245 247 261 194 241 242 224 201 245 157 204 150 174 185 184 181 180 171 167 173 163 167 165 173 170 170 161 166 150 169 156 156 175 176 155 183 196 135 185 186 144 138 96 120 112 104 97
230 236 249 247 241 240 233 241 231 224 179 206 162 170 181 189 181 184 186 177 168 174 168 167 172 174 168 186 155 163 162 148 159 171 167 185 165 171 157 170 152 109 81 142 134 131 123 88 97
247 233 243 244 231 237 221 240 233 214 203 200 185 181 186 191 182 190 188 176 177 174 169 170 173 171 173 169 173 176 174 162 168 166 154 190 192 179 159 169 150 135 99 116 115 114 107 111 99
226 240 241 226 229 222 226 232 224 203 210 195 194 187 188 188 193 186 192 182 180 175 168 172 178 172 174 166 181 184 157 190 168 147 169 175 175 171 210 139 157 135 158 150 139 129 121 120 122
208 227 224 241 205 216 221 232 234 215 213 200 196 189 187 184 194 188 187 189 184 177 167 173 184 175 177 170 182 189 152 201 169 169 164 175 161 163 194 158 130 180 152 101 145 154 158 134 129
212 218 236 216 217 205 224 228 238 239 217 195 198 201 185 185 189 185 189 190 186 180 169 177 183 178 181 169 181 182 166 191 174 179 167 168 160 163 187 127 149 202 170 161 171 152 146 146 144
234 218 224 235 210 196 224 235 218 234 227 199 209 182 205 188 183 178 187 192 187 181 176 181 179 179 183 177 182 181 179 179 174 185 154 175 153 168 183 158 170 210 190 172 155 160 155 140 130
241 248 225 234 185 217 225 230 236 219 237 209 206 180 190 196 183 179 183 189 190 183 179 182 180 183 190 186 188 187 187 175 187 179 164 187 165 172 178 173 182 197 166 162 173 164 165 154 169
228 223 233 231 189 210 246 242 221 229 220 214 224 197 180 190 196 191 180 188 185 187 177 186 178 186 194 191 190 183 180 165 188 178 181 187 181 175 185 181 182 177 165 172 178 181 181 171 190
224 215 237 226 215 218 205 238 209 225 222 215 204 225 190 179 187 191 184 186 184 189 176 189 183 186 196 197 189 186 184 187 192 183 184 171 185 177 181 181 178 179 196 179 189 187 186 190 195
230 210 220 234 234 241 220 225 250 198 218 202 199 202 226 184 181 188 190 189 187 184 177 191 183 185 191 201 194 183 192 193 182 184 172 173 177 177 182 180 183 186 202 183 193 182 203 195 199
220 237 200 232 230 230 235 212 235 227 199 213 212 192 194 204 187 189 187 190 191 188 185 196 192 183 189 199 191 188 195 210 178 177 174 182 172 177 182 181 185 187 198 183 192 192 199 211 215
213 213 197 203 211 226 214 230 227 53 70 51 311 210 174 194 200 190 177 181 188 184 185 190 190 194 187 190 175 198 210 223 175 176 185 182 175 175 170 179 180 185 184 177 193 191 195 205 199
204 205 211 203 211 211 237 207 188 117 109 99 63 42 39 188 195 155 148 184 183 192 178 181 175 202 199 194 183 193 220 207 194 187 188 182 176 168 165 185 187 177 171 169 184 190 193 190 197
194 216 223 234 233 217 189 133 98 140 128 115 106 101 89 61 11 52 173 182 178 195 189 174 180 190 198 195 189 185 188 167 148 144 148 140 160 175 168 172 155 184 163 165 180 181 185 176 175
228 210 220 235 236 219 206 186 172 168 145 129 126 116 107 93 79 105 174 209 202 195 171 153 172 195 190 174 182 176 158 144 132 134 143 144 154 166 162 151 156 169 157 163 187 158 168 171 169
216 229 232 242 226 230 233 198 147 152 143 131 118 110 103 90 83 62 46 14 50 67 151 163 156 174 182 157 154 156 144 141 135 146 160 176 164 171 160 153 150 158 169 157 211 166 161 170 169
298 225 236 231 214 244 250 82 101 118 124 122 117 109 100 96 90 75 89 63 50 41 45 107 145 180 161 162 141 165 152 147 153 164 182 167 161 162 159 154 160 175 163 160 185 176 161 168 161